Davenport Municipal Airport
Tuesday 10:52 PM
Temperature56° (75°/52°)
Dew Point53°
Relative Humidity90
%
Visibility10
mi
Pressure1019.6
mb
Wind Direction
Wind Speed3
mph
Precipitation Today0.00"

Last 30 Observations

Time PresWx Temp DP Feels RH% Vsby Pressure Ceiling Direction Speed 1h Precip
10:52 PM 56° 53° 90
%
10
mi
1019.7
mb
ENE
70°
3
mph
0.00"
9:52 PM 58° 55° 90
%
10
mi
1019.7
mb
Calm 0.00"
8:52 PM 62° 55° 78
%
10
mi
1019.7
mb
W
260°
5
mph
0.00"
7:52 PM 65° 56° 73
%
10
mi
1019.3
mb
W
280°
5
mph
0.00"
6:52 PM 72° 53° 71°51
%
10
mi
1019.3
mb
NW
320°
3
mph
0.00"
5:52 PM 72° 52° 71°49
%
10
mi
1019.7
mb
8,000
ft
NW
310°
6
mph
0.00"
4:52 PM 72° 52° 71°49
%
10
mi
1020.0
mb
8,000
ft
N
350°
8
mph
0.00"
3:52 PM 71° 50° 70°47
%
10
mi
1020.3
mb
8,000
ft
NNW
330°
6
mph
0.00"
2:52 PM 74° 51° 73°45
%
10
mi
1020.3
mb
NNW
330°
6
mph
0.00"
1:52 PM 74° 52° 73°46
%
10
mi
1020.7
mb
NNW
340°
8
mph
0.00"
12:52 PM 71° 52° 70°51
%
10
mi
1020.7
mb
Variable 6
mph
0.00"
11:52 AM 69° 52° 54
%
10
mi
1021.0
mb
5,000
ft
NNW
330°
8
mph
0.00"
10:52 AM 70° 54° 57
%
10
mi
1021.3
mb
NW
320°
8
mph
0.00"
9:52 AM 68° 54° 61
%
10
mi
1021.0
mb
Variable 7
mph
0.00"
8:52 AM 64° 56° 75
%
10
mi
1020.3
mb
NE
50°
10
mph
0.00"
7:52 AM 61° 56° 83
%
10
mi
1020.7
mb
N
360°
3
mph
0.00"
6:52 AM 54° 52° 93
%
10
mi
1020.3
mb
7,000
ft
NW
310°
5
mph
0.00"
5:52 AM 53° 51° 93
%
10
mi
1020.3
mb
7,000
ft
NNW
330°
6
mph
0.00"
4:52 AM 53° 51° 93
%
10
mi
1020.0
mb
7,000
ft
NNW
330°
5
mph
0.00"
3:52 AM 52° 50° 93
%
10
mi
1020.0
mb
NW
320°
6
mph
0.00"
2:52 AM 53° 51° 93
%
10
mi
1020.0
mb
NNW
330°
6
mph
0.00"
1:52 AM 54° 51° 90
%
10
mi
1020.0
mb
NW
320°
7
mph
0.00"
12:52 AM 55° 52° 89
%
10
mi
1020.0
mb
NNW
330°
5
mph
0.00"
11:52 PM 56° 52° 87
%
10
mi
1020.0
mb
NNE
30°
6
mph
0.00"
10:52 PM 58° 54° 87
%
10
mi
1020.0
mb
N
10°
5
mph
0.00"
9:52 PM 59° 53° 81
%
10
mi
1020.0
mb
NE
40°
6
mph
0.00"
8:52 PM 63° 54° 72
%
10
mi
1019.3
mb
6,000
ft
NE
40°
9
mph
0.00"
7:52 PM 65° 55° 70
%
10
mi
1019.3
mb
5,500
ft
NE
40°
5
mph
0.00"
6:52 PM 66° 54° 65
%
10
mi
1019.3
mb
5,000
ft
NE
50°
9
mph
0.00"
5:52 PM 67° 54° 63
%
10
mi
1019.0
mb
4,400
ft
NNE
20°
10
mph
0.00"